OpenBCM V1.13 (Linux)

Packet Radio Mailbox

DB0FHN

[JN59NK Nuernberg]

 Login: GUEST





  
I6KZR  > KEPLER   04.02.03 22:29l 317 Lines 15752 Bytes #999 (0) @ WW
BID : 22174_IK6WID
Read: DB0FHN GUEST
Subj: 2L Keplerian Elements #035
Path: DB0FHN<DB0ZWI<DB0HOT<DB0MRW<DB0RGB<OK0PPL<RZ6HXA<SP7MGD<IK6PYS<I6ZLO<
      IK6WID
Sent: 030204/2012Z @:IK6WID.#AP.IMAR.ITA.EU #:22174 [MONTE URANO]  FBB7.00i
From: I6KZR@IK6WID.#AP.IMAR.ITA.EU
To  : KEPLER@WW


OSCAR 7
1 07530U 74089B   03034.68804533 -.00000029 +00000-0 +10000-3 0 01651
2 07530 101.7638 082.6130 0012221 106.3038 253.9378 12.53564157291325
GOES 2
1 10061U 77048A   03028.56527598  .00000000  00000-0  10000-3 0   708
2 10061  14.1264  13.5931 0013180 196.1337 163.8523  0.99391768 38622
GOES 3
1 10953U 78062A   03033.97871479 -.00000103  00000-0  00000+0 0  9121
2 10953  13.4027  17.3505 0005282 341.1984  18.8202  1.00278737 43345
GOES 6
1 14050U 83041A   03035.09071563  .00000041  00000-0  10000-3 0  4172
2 14050  10.3815  35.5807 0003190 349.1855  10.8902  1.00298332130491
OSCAR 10
1 14129U 83058B   03034.35061340 -.00000148  00000-0  10000-3 0  9148
2 14129  25.9028 166.8331 6027722 324.8138   7.1176  2.05866763119756
OSCAR 11 (UoSAT 2)
1 14781U 84021B   03034.98783380 +.00001326 +00000-0 +19135-3 0 00650
2 14781 098.1148 008.8018 0008175 258.7843 101.2450 14.77947791014089
NOAA 10
1 16969U 86073A   03034.96468549  .00000145  00000-0  77649-4 0  6507
2 16969  98.7275  29.1056 0013062 126.5056 233.7329 14.27057606851822
GOES 7
1 17561U 87022A   03013.52827387  .00000116  00000-0  10000-3 0  8102
2 17561   7.5470  55.7264 0004064 288.6625 149.4031  1.00317770 41389
COSMOS 1861
1 18129U 87054A   03035.44292678  .00000038  00000-0  25069-4 0  1975
2 18129  82.9251 157.0018 0010280 269.2032  90.7946 13.72699058782571
EUTELSAT 1-F4 (ECS 4)
1 18351U 87078B   03033.74471135 -.00000121  00000-0  00000+0 0   332
2 18351   7.1639  58.7088 0008052 194.6441 165.4400  0.98689338 42523
NOAA 11
1 19531U 88089A   03034.94050501  .00000165  00000-0  10907-3 0  4881
2 19531  98.9027 116.3708 0010990 242.4321 117.5734 14.14530094740739
ASTRA 1A
1 19688U 88109B   03035.08770958  .00000028  00000-0  10000-3 0  5678
2 19688   1.3433  95.1507 0004101 216.5866 218.8252  1.00271599 32057
OSCAR 14 (UOSAT 3)
1 20437U 90005B   03034.67779670 +.00000111 +00000-0 +57413-4 0 01606
2 20437 098.2747 079.0013 0009831 246.6488 113.3666 14.31232314680367
OSCAR 15 (UOSAT 4)
1 20438U 90005C   03035.52609891  .00000102  00000-0  55224-4 0  7726
2 20438  98.2485  68.9915 0009025 255.8945 104.1246 14.30193948680157
OSCAR 16 (PACSAT)
1 20439U 90005D   03034.69514200 +.00000145 +00000-0 +70206-4 0 08492
2 20439 098.3203 090.6150 0010127 252.4969 107.5125 14.31465252680406
OSCAR 17 (DOVE)
1 20440U 90005E   03034.89660136 +.00000158 +00000-0 +75000-4 0 07384
2 20440 098.3387 094.6664 0010247 251.7914 108.2154 14.31742804680502
OSCAR 18 (WEBERSAT)
1 20441U 90005F   03034.95636973 +.00000134 +00000-0 +66224-4 0 00143
2 20441 098.3383 093.9455 0010768 251.6453 108.3561 14.31547177680491
OSCAR 19 (LUSAT)
1 20442U 90005G   03035.21600434  .00000148  00000-0  71079-4 0  9550
2 20442  98.3480  97.1903 0011091 251.5282 108.4696 14.31710215680588
JAS 1B (FUJI 2)
1 20480U 90013C   03034.96786003 -.00000027 +00000-0 +71993-5 0 04827
2 20480 099.0442 000.4589 0540891 036.9217 326.7872 12.83329048608644
HST
1 20580U 90037B   03034.43025535  .00084847  00000-0  69731-2 0  3163
2 20580  28.4632 136.4057 0003759 110.5110 335.4145 14.97746539500365
EUTELSAT 2-F1
1 20777U 90079B   03033.86449529 -.00000108  00000-0  10000-3 0   247
2 20777   3.4631  84.7049 0000661 293.1089 142.0363  1.00270811 25948
FENGYUN 1B
1 20788U 90081A   03034.97650134 -.00000164 +00000-0 -78171-4 0 08774
2 20788 099.0257 017.3021 0015016 271.7997 088.1447 14.02136058635497
EUTELSAT 2-F2
1 21056U 91003B   03028.05627895  .00000116  00000-0  10000-3 0  6137
2 21056   2.6793  88.1781 0003016 259.4382 207.9268  1.00269467 31664
INFORMATOR 1
1 21087U 91006A   03034.85862472 +.00000057 +00000-0 +44452-4 0 06167
2 21087 082.9436 328.2985 0034136 293.7174 066.0396 13.74924662602865
COSMOS 2123
1 21089U 91007A   03034.90793433 +.00000067 +00000-0 +55538-4 0 05040
2 21089 082.9210 192.2493 0028859 330.0953 029.8552 13.74402663601777
ASTRA 1B
1 21139U 91015A   03023.00000000  .00000124  00000-0  10000-3 0  1588
2 21139   0.0122 319.8851 0002995  65.1991 116.0459  1.00273184 31921
METEOSAT 5 (MOP 2)
1 21140U 91015B   03030.86842619  .00000009  00000-0  10000-3 0  6994
2 21140   5.5886  70.0779 0002689 145.8566 289.1893  1.00269534 45865
NOAA 12
1 21263U 91032A   03034.94989293  .00000288  00000-0  14116-3 0  9569
2 21263  98.6241  24.8262 0013756  64.8764 295.3840 14.25069714609136
OSCAR 22 (UoSAT 5)
1 21575U 91050B   03035.53307327  .00000286  00000-0  10561-3 0  7176
2 21575  98.1391  28.3628 0007357 168.0251 192.1113 14.39143361606260
METEOR 3-5
1 21655U 91056A   03034.93573469 +.00000051 +00000-0 +10000-3 0 05767
2 21655 082.5526 049.2002 0012337 234.0314 125.9666 13.16979012551554
UARS
1 21701U 91063B   03035.12829581  .00000746  00000-0  74161-4 0  8165
2 21701  56.9816  90.4997 0005044 115.6533 244.5046 15.02826412623549
EUTELSAT 2-F3
1 21803U 91083A   03034.84161444  .00000121  00000-0  10000-3 0  5160
2 21803   2.5616  89.2918 0002656 251.1318 117.5431  1.00272798 36853
INMARSAT 2-F3
1 21814U 91084B   03034.42451237  .00000104  00000-0  10000-3 0  6093
2 21814   1.7154  57.8289 0002711 271.9963 174.1078  1.00271559 40746
INMARSAT 2-F4
1 21940U 92021B   03031.69489394 -.00000363  00000-0  10000-3 0  5677
2 21940   2.3651  19.1621 0001499 302.0485 168.4151  1.00268330 39506
EUTELSAT 2-F4
1 22028U 92041B   03028.97057872 -.00000106  00000-0  10000-3 0  3242
2 22028   1.6660  92.8484 0005860 216.6759 155.3765  1.00272003 31578
OSCAR 23 (KITSAT 1)
1 22077U 92052B   03034.95183118 -.00000037 +00000-0 +10000-3 0 02653
2 22077 066.0798 156.3352 0015407 277.8913 082.0357 12.86407942492424
ASTRA 1C
1 22653U 93031A   03023.00000000  .00000123  00000-0  10000-3 0  7844
2 22653   0.0122 319.8851 0002995  65.1991 116.0096  1.00273184 30626
METEOR 2-21
1 22782U 93055A   03034.85376332 -.00000012 +00000-0 -24782-4 0 05099
2 22782 082.5448 226.5651 0023061 030.6081 329.6389 13.83530775476055
KITSAT B
1 22825U 93061C   03035.53803726  .00000147  00000-0  74396-4 0  4780
2 22825  98.2756  65.9486 0007774 306.2298  53.8168 14.28937750487872
POSAT 1
1 22826U 93061D   03034.59033959 +.00000140 +00000-0 +71304-4 0 03068
2 22826 098.2777 066.1580 0008583 309.4145 050.6275 14.29159651487780
ITAMSAT
1 22828U 93061F   03034.64423600  .00000112  00000-0  59822-4 0  4175
2 22828  98.2735  66.4734 0009343 286.4865  73.5290 14.29502619455993
EYESAT A
1 22829U 93061G   03034.65612870  .00000193  00000-0  90958-4 0  4417
2 22829  98.2757  67.0833 0009076 286.1814  73.8369 14.29759769487927
METEOSAT 6
1 22912U 93073B   03034.85176123  .00000057  00000-0  00000+0 0  6641
2 22912   2.6419  82.4476 0000958 237.8676 129.4266  1.00278151 32158
GOES 8
1 23051U 94022A   03034.42185608 -.00000257  00000-0  00000+0 0  5891
2 23051   0.2612 103.5931 0000934 295.7641 170.4684  1.00281783 39659
ASTRA 1D
1 23331U 94070A   03034.84223145  .00000133  00000-0  00000+0 0  8110
2 23331   0.0526 222.1035 0003596  39.5863 199.2686  1.00273941 30729
RADIO ROSTO
1 23439U 94085A   03033.50640412 -.00000042  00000-0  13461-4 0  6799
2 23439  64.8175  67.4555 0147166 118.2324 243.3477 11.27548155333785
NOAA 14
1 23455U 94089A   03034.96102936  .00000114  00000-0  86110-4 0  5111
2 23455  99.1871  53.1435 0008591 271.3139  88.7048 14.13291032417414
HIMAWARI 5 (GMS 5)
1 23522U 95011B   03034.14095716 -.00000293  00000-0  00000+0 0   831
2 23522   1.7414  83.9232 0000441  22.1495 217.4173  1.00262601 28735
HOT BIRD 1
1 23537U 95016B   03013.80550721  .00000107  00000-0  10000-3 0  5332
2 23537   0.0070 236.2796 0008090  86.9786  92.5958  1.00275871 28611
GOES 9
1 23581U 95025A   03031.49884696  .00000115  00000-0  00000+0 0  4981
2 23581   0.3154 277.7072 0012790 253.4411 356.2791  1.00049027 28180
INMARSAT 3-F1
1 23839U 96020A   03034.69892962  .00000010  00000-0  00000+0 0  8611
2 23839   0.0623 340.4413 0004292 337.8314 130.6533  1.00271087 25063
ASTRA 1F
1 23842U 96021A   03023.00000000  .00000124  00000-0  10000-3 0  5576
2 23842   0.0122 319.8851 0002995  65.1991 116.0362  1.00273184 24851
JAS 2
1 24278U 96046B   03034.89792623 -.00000007 +00000-0 +31274-4 0 05720
2 24278 098.5334 188.1099 0349920 254.5550 101.6682 13.52870430319321
UNAMSAT
1 24305U 96052B   03034.77228590 +.00000205 +00000-0 +20364-3 0 06628
2 24305 082.9401 273.7305 0028720 241.9827 117.8421 13.73449567321457
INMARSAT 3-F2
1 24307U 96053A   03032.96911458 -.00000134  00000-0  00000+0 0   797
2 24307   0.0664  16.8716 0004612 287.1197 161.0756  1.00270670 23454
HOT BIRD 2
1 24665U 96067A   03022.98977813  .00000000  00000-0  10000-3 0  3404
2 24665   0.0347 162.8644 0004202 151.1719 177.1880  1.00271548 22995
INMARSAT 3-F3
1 24674U 96070A   03034.41574416  .00000032  00000-0  10000-3 0  9828
2 24674   0.0341 322.5757 0004324 340.7153 157.6477  1.00274208 22432
GOES 10
1 24786U 97019A   03034.20630208  .00000075  00000-0  00000+0 0  5294
2 24786   0.1001 107.3284 0003109 217.8748 107.6695  1.00287005 21185
INMARSAT 3-F4
1 24819U 97027A   03032.42158473 -.00000296 +00000-0 +10000-3 0 08756
2 24819 000.0283 297.5727 0003877 018.9270 272.4104 01.00267337020832
FENGYUN 2A
1 24834U 97029A   03032.62147551 -.00000199  00000-0  00000+0 0  9525
2 24834   2.5306  88.6477 0003238 268.9222  83.0864  1.00260410 20663
HOT BIRD 3
1 24931U 97049A   03023.22766377  .00000000  00000-0  10000-3 0  4210
2 24931   0.0604 227.5595 0010036  81.3762 268.1866  1.00274291 19804
METEOSAT 7
1 24932U 97049B   03034.95645662 -.00000008  00000-0  00000+0 0  2410
2 24932   0.1844  54.7572 0001303 237.6936 185.7402  1.00276842 19874
